Theta_e
341 342 342 343 344 343 343 343 343 344 344 344 344 345 344 345 345 345 344 345 346 346 347 348 349 349 350 352 354 354 354 354 355 355 354 353 353 353 354 356 356 356 355 354 353 352 350 351 352 352 351 351 348 347 348 348 347 347 347 349 349 351 354 358 363 364 360 355 352 353 356 359 358 358 359 360 358 356 357 359 359 358 358 359 360
340 341 343 343 344 344 343 344 343 344 344 344 344 344 344 344 344 344 345 345 345 346 346 347 346 347 347 350 352 353 353 353 354 355 355 353 352 353 354 354 354 355 356 356 356 355 352 350 352 352 351 350 349 349 349 348 347 345 345 348 348 349 352 356 359 362 362 358 355 354 354 358 358 356 356 357 358 357 357 359 360 359 359 358 359
341 342 342 343 343 343 343 343 343 343 343 343 344 343 343 343 343 343 344 345 345 346 346 346 346 346 347 349 351 353 353 352 352 354 355 353 352 352 353 353 354 355 355 355 355 356 354 352 352 353 351 350 349 348 348 347 346 345 345 345 347 348 350 352 356 359 361 360 358 355 354 355 356 355 355 356 358 359 359 360 361 361 360 358 358
341 342 342 342 342 342 342 342 342 342 342 342 342 342 342 342 342 343 344 344 345 345 345 346 346 347 348 349 351 352 353 353 352 353 354 354 353 352 352 353 354 355 355 354 353 355 356 354 353 351 349 349 349 348 348 347 346 344 343 342 344 347 348 351 354 357 358 359 358 356 354 354 353 355 356 355 356 358 358 359 360 360 359 358 359
342 342 341 342 342 342 341 340 340 340 340 340 341 341 341 342 342 343 344 344 344 345 346 346 346 347 348 348 349 350 352 352 352 353 353 353 354 353 352 353 354 354 354 354 353 353 355 355 355 353 349 348 349 348 347 346 346 345 344 342 342 345 347 350 353 355 356 358 359 357 357 355 354 356 355 354 356 358 359 359 361 360 359 359 359
342 342 342 342 342 341 340 340 340 339 339 340 340 341 342 342 343 344 344 344 345 345 346 346 346 346 346 347 347 348 350 351 351 351 351 353 353 352 352 353 353 353 353 353 353 353 354 354 353 353 352 350 351 350 348 347 346 345 345 342 342 345 347 349 352 354 356 357 359 359 358 358 357 357 357 355 356 358 359 359 358 359 360 359 360
342 341 342 342 340 340 339 338 339 339 340 341 341 341 342 342 343 343 344 344 344 345 345 345 346 346 346 346 346 347 348 349 350 350 350 352 352 351 351 351 351 352 352 352 352 352 353 353 352 352 353 353 354 352 350 349 348 347 346 344 345 348 348 350 353 357 358 358 360 361 361 360 360 358 355 355 356 357 356 355 356 356 358 360 361
342 341 340 340 339 339 339 338 339 339 340 341 341 342 342 342 343 343 343 344 344 344 345 345 346 346 347 347 347 347 348 349 351 351 351 352 352 352 351 351 351 351 352 351 352 352 352 352 351 351 352 353 354 353 350 348 349 349 350 348 348 349 351 352 354 357 359 359 360 361 361 362 362 358 355 354 355 356 356 356 357 357 357 358 359
340 340 339 339 338 338 338 339 339 339 340 340 341 341 342 341 342 343 343 344 344 344 344 344 345 345 346 347 347 347 348 349 350 350 352 353 352 352 351 350 351 350 351 351 351 351 352 351 351 351 352 352 352 352 350 348 348 349 351 352 352 353 355 356 355 356 358 359 360 361 362 363 363 359 354 352 354 355 357 358 359 360 358 358 357
340 339 339 338 338 337 338 338 339 339 340 340 340 341 341 342 342 342 343 343 343 343 343 344 344 345 345 346 346 347 348 348 347 347 350 352 351 351 351 350 350 350 350 351 350 350 350 351 351 351 352 352 352 353 351 349 349 348 350 351 351 352 355 358 358 357 359 360 360 361 362 364 364 359 355 354 353 354 356 357 356 357 357 356 355
339 338 338 338 338 337 338 338 338 339 339 339 340 340 340 341 341 341 342 342 343 343 343 343 343 344 345 346 345 346 347 347 346 346 347 349 350 351 351 350 350 350 350 350 350 350 350 351 351 351 351 352 352 353 353 352 351 350 349 350 350 349 352 356 359 359 360 362 362 360 362 363 363 360 357 355 353 353 355 356 354 353 352 353 354
338 337 337 337 337 337 337 337 338 338 339 339 339 340 339 340 341 341 341 342 342 342 342 343 343 344 344 345 345 346 346 347 346 345 346 347 349 351 350 350 350 349 349 349 348 349 351 351 351 350 350 351 351 352 353 353 352 352 352 352 351 351 351 354 358 360 360 362 362 361 360 360 361 362 360 356 355 354 354 354 353 352 352 351 352
337 337 337 336 337 337 336 337 338 337 338 339 339 340 339 340 341 341 341 341 342 342 342 343 343 343 344 344 344 344 345 345 346 344 345 347 349 350 350 349 349 349 349 349 348 349 350 350 351 351 351 351 352 352 354 354 354 356 356 354 352 352 352 353 356 361 361 361 362 360 359 357 358 361 361 358 355 354 355 355 353 352 353 352 353
336 336 336 336 337 336 336 337 337 338 338 338 338 339 339 340 340 341 341 341 340 342 342 343 343 343 343 343 343 344 344 345 345 344 344 347 348 349 349 348 348 348 348 348 348 348 349 350 350 350 350 351 352 353 355 356 357 356 355 353 353 354 355 354 355 358 360 361 361 360 359 357 357 359 361 360 356 355 356 357 354 354 355 355 355
335 335 335 336 336 336 336 337 337 337 338 337 338 339 339 340 340 340 340 340 340 342 342 342 343 343 343 343 343 344 344 344 345 344 345 347 347 348 348 347 348 348 347 347 347 347 349 350 350 350 349 349 351 353 354 355 355 355 354 353 354 354 355 355 356 356 358 359 359 359 359 357 357 359 361 360 359 355 356 357 357 356 357 355 356
335 335 336 336 336 335 336 336 336 337 337 337 338 339 339 340 340 339 340 340 340 341 341 342 342 342 342 342 342 343 343 343 344 345 345 346 346 347 348 348 348 348 347 348 348 347 348 349 349 348 347 348 349 352 353 352 353 354 353 353 353 352 353 354 355 355 357 357 358 358 358 358 358 359 359 360 361 359 357 359 359 357 357 356 357
335 335 336 335 335 335 336 336 336 336 337 337 338 338 339 339 339 339 339 340 340 341 341 341 341 341 341 342 341 342 343 343 343 343 344 344 345 347 347 348 349 348 348 348 347 347 348 348 347 347 347 348 350 351 351 351 352 353 352 352 351 351 351 351 352 353 355 356 357 357 357 358 359 360 359 360 361 360 358 356 357 357 356 357 358
335 335 336 335 335 335 335 335 335 336 336 336 337 338 338 338 339 339 339 339 340 341 341 341 341 341 340 340 341 342 342 342 342 342 342 343 344 345 345 346 347 347 349 349 347 347 348 348 347 347 348 348 350 352 351 350 350 350 351 350 350 349 349 350 351 352 354 355 356 355 356 357 357 359 360 359 361 360 356 352 355 357 356 356 357
335 335 335 335 334 334 334 335 335 335 335 336 337 337 338 338 338 338 338 339 340 340 340 340 340 340 340 340 341 341 342 343 342 342 341 341 342 344 344 345 346 347 347 347 347 347 348 348 347 347 348 349 349 350 350 350 347 345 345 348 348 347 348 349 350 352 353 353 353 354 354 355 355 356 357 358 359 361 357 353 354 356 356 356 356
335 334 334 334 334 334 334 334 335 335 335 335 336 337 337 337 338 338 338 340 340 340 340 340 340 340 340 340 341 341 341 342 342 342 341 340 340 343 345 345 346 346 346 345 346 347 347 347 347 347 347 348 348 348 349 349 346 342 343 347 349 349 349 349 350 351 351 352 352 352 353 355 355 355 354 356 358 359 358 355 354 356 355 355 356
336 335 334 334 333 333 333 334 334 334 334 335 335 336 336 336 337 337 338 339 340 340 340 340 340 340 340 340 340 341 341 342 342 343 342 340 339 341 343 345 345 345 346 346 346 347 347 346 346 346 346 347 348 348 348 349 347 344 344 347 348 349 350 351 351 352 351 352 352 352 352 353 355 355 355 357 357 357 357 356 355 355 355 355 356
335 334 333 333 333 333 333 333 333 334 333 334 335 335 335 336 336 337 337 339 340 340 340 340 340 340 340 339 339 341 340 341 342 343 341 339 339 340 342 343 345 345 345 345 344 345 347 346 344 344 345 345 345 346 347 348 348 347 347 347 348 349 350 351 351 351 351 351 351 352 352 352 353 353 354 356 357 356 356 357 356 355 355 354 355
334 333 332 332 332 333 332 332 332 332 333 333 334 334 335 335 336 336 337 338 340 340 340 340 340 340 340 339 339 340 340 339 340 342 342 339 338 340 341 343 344 344 343 344 344 345 346 347 343 343 344 344 345 345 345 347 348 348 348 348 348 348 349 349 349 350 349 350 350 351 352 353 353 353 352 353 355 355 355 354 353 355 355 355 355
334 333 332 332 332 332 332 332 331 331 332 332 333 334 334 334 335 335 336 337 339 340 340 339 339 340 339 339 339 339 338 338 339 341 342 340 339 341 342 342 343 343 343 343 343 344 346 345 343 343 343 344 346 346 345 346 346 347 348 348 348 349 347 347 348 349 349 350 350 351 351 352 352 352 352 353 354 355 353 349 348 353 356 356 356
334 334 333 332 331 331 331 330 330 330 330 331 331 332 333 333 334 334 335 336 337 339 339 339 339 340 339 338 338 338 338 338 339 339 340 340 341 341 341 341 342 342 343 342 342 344 345 344 343 344 344 344 346 347 346 346 346 348 348 349 349 349 347 347 348 349 349 350 350 351 352 351 352 352 352 354 354 354 352 349 350 353 354 353 354
334 333 333 332 330 330 331 330 330 330 329 329 330 331 331 332 333 333 334 335 336 337 338 338 339 339 339 338 339 338 337 338 338 339 339 340 340 340 340 340 340 340 340 340 341 343 343 343 343 344 344 345 346 346 347 347 347 348 348 348 349 349 348 348 348 349 350 350 350 351 351 351 352 352 352 353 353 352 352 351 352 352 352 351 351
333 332 331 330 330 330 330 330 329 329 329 328 329 330 330 331 332 332 333 334 334 335 335 335 336 336 337 337 337 338 338 338 338 338 338 339 339 339 339 340 340 340 339 339 339 341 342 343 343 343 344 344 345 345 346 346 347 347 347 347 348 348 348 347 348 349 349 350 350 351 351 351 352 352 352 353 353 352 352 352 351 351 350 349 349
332 331 330 330 330 331 330 329 329 329 328 329 329 330 331 331 332 332 332 333 333 333 333 333 333 333 334 335 336 336 337 336 337 338 338 338 336 337 337 338 338 339 339 338 339 339 340 341 343 343 343 343 344 345 345 345 345 346 346 346 347 347 347 347 347 348 348 349 350 350 350 351 351 351 353 353 352 352 352 351 351 350 349 348 349
332 331 330 330 331 330 330 329 328 328 329 329 330 330 331 331 330 331 331 331 331 331 331 331 332 332 333 334 334 335 335 335 336 337 337 336 335 334 335 335 336 337 338 338 339 338 337 338 341 344 344 344 345 346 345 345 346 346 346 347 347 347 348 348 348 348 348 349 349 350 350 351 351 351 352 353 353 353 352 350 349 349 349 348 348
331 330 330 330 331 330 329 328 328 328 328 329 329 330 330 330 330 329 329 329 329 330 330 331 332 332 333 333 333 334 334 334 335 335 335 335 334 335 335 335 335 337 338 338 338 338 337 338 340 342 344 345 345 346 347 347 346 347 347 348 348 348 348 348 348 349 349 349 349 349 349 350 350 350 352 352 353 353 351 350 349 349 348 346 346
332 331 331 330 330 329 329 328 329 329 329 330 330 330 330 330 330 329 329 329 330 330 330 331 331 332 333 333 333 334 333 333 333 334 334 334 334 335 335 336 335 336 337 336 337 338 339 339 340 341 343 344 343 344 345 345 346 346 348 348 347 348 348 348 348 348 348 348 349 349 349 349 349 350 350 350 350 350 350 350 350 348 347 346 345
332 331 331 330 329 329 329 329 330 330 330 330 330 330 330 330 330 330 330 330 330 330 330 331 332 332 332 334 334 333 333 333 334 334 334 334 334 334 335 335 335 335 335 334 334 336 339 339 340 342 343 344 343 342 341 341 343 345 346 346 346 346 346 346 346 345 345 346 346 347 349 349 349 349 349 349 349 350 350 351 349 347 347 346 345
331 330 330 329 329 329 329 330 330 330 330 330 329 330 330 330 330 330 330 330 330 330 331 331 332 333 334 334 334 334 334 334 334 335 335 334 335 335 335 335 335 335 335 333 333 335 339 340 340 340 341 342 342 340 340 341 342 343 344 344 345 344 344 343 342 341 341 342 343 345 347 347 348 349 348 349 349 350 350 350 349 347 346 346 345
329 329 329 329 328 329 329 329 329 329 329 329 329 329 329 330 330 330 330 330 331 331 331 332 332 333 334 335 334 334 335 335 335 335 334 335 335 336 336 336 336 335 335 334 333 335 338 339 338 339 341 342 340 340 341 341 342 343 343 342 342 343 343 341 340 340 340 341 343 345 346 346 347 348 348 349 351 350 349 348 348 346 345 344 343
328 327 328 328 329 329 329 329 329 329 329 329 329 329 329 329 329 330 330 331 331 331 332 333 333 333 333 334 334 333 334 335 335 335 334 335 335 336 336 336 335 334 335 334 333 335 336 338 339 341 342 343 342 341 342 342 342 342 341 340 341 342 342 341 340 340 340 341 344 346 346 347 348 348 348 349 349 348 347 347 346 345 344 343 343
327 327 328 328 329 329 328 328 328 329 328 329 328 328 328 329 329 329 330 331 331 331 332 332 333 333 333 334 334 332 333 334 336 335 335 335 336 336 336 335 335 335 336 336 336 335 336 338 340 340 340 342 343 343 342 341 341 341 340 341 341 341 341 342 341 340 340 343 345 346 346 346 346 346 347 348 348 347 346 345 344 343 343 342 341
327 327 328 328 328 328 328 328 328 328 328 328 328 328 329 329 329 330 330 330 331 331 331 332 333 333 333 334 334 333 334 335 335 335 335 335 335 336 335 334 334 336 337 338 339 338 339 340 340 339 338 340 342 342 340 339 339 339 340 341 341 340 341 341 341 340 342 344 345 345 343 343 343 344 344 346 346 345 343 343 342 342 341 341 341
327 327 328 328 327 328 327 327 327 328 328 328 328 328 328 328 329 329 330 330 330 331 331 332 332 332 333 333 334 334 334 334 334 335 335 335 335 334 333 332 332 334 335 337 339 341 340 340 339 338 337 339 339 340 339 338 338 338 340 341 341 340 339 339 340 341 342 342 343 343 341 342 343 343 342 341 341 341 341 340 340 340 340 340 340
326 326 327 327 327 327 327 327 327 327 327 328 328 328 328 328 329 329 330 330 330 330 331 332 332 331 331 333 333 334 334 334 334 335 335 335 335 335 332 331 331 333 334 336 338 339 339 339 338 338 338 339 338 338 338 339 339 338 340 342 340 338 337 340 341 340 340 340 341 341 341 341 340 340 340 339 338 338 339 340 339 339 340 340 340
326 326 326 326 326 326 326 327 327 327 327 327 327 327 327 328 328 328 329 329 329 330 331 332 332 332 331 332 333 333 333 334 334 335 335 335 335 335 334 333 334 334 335 336 338 339 339 339 340 339 339 339 339 339 339 340 340 339 340 341 340 337 338 341 341 340 340 341 341 341 342 342 341 341 341 340 338 338 339 340 340 340 340 340 340
326 326 326 326 325 326 327 327 327 327 327 326 327 327 327 327 328 328 328 328 329 329 330 331 332 331 330 330 330 330 331 332 333 334 335 335 335 336 336 336 336 336 337 337 338 338 339 339 339 339 339 339 340 340 339 340 341 340 340 340 339 338 340 342 341 340 341 342 341 341 342 342 341 341 341 341 340 340 339 339 340 339 340 340 340
326 325 326 326 325 326 327 327 327 327 326 326 326 327 326 326 326 326 326 326 326 327 327 327 328 328 327 326 326 327 329 332 333 333 334 334 335 336 336 336 336 336 337 337 337 338 338 337 337 339 340 340 341 341 340 341 341 340 340 340 339 339 341 343 342 341 342 342 342 343 343 342 341 340 340 339 340 340 339 339 339 339 338 339 338
325 326 326 325 325 326 326 326 326 325 325 326 326 325 325 325 324 324 324 324 323 324 324 324 324 324 324 323 324 325 328 331 333 333 333 333 335 336 336 335 335 335 335 335 337 339 338 337 337 339 340 340 341 342 342 342 342 341 340 339 338 339 340 341 342 341 342 342 343 344 344 343 342 340 339 339 339 339 339 339 339 338 338 338 338
325 325 325 324 325 325 325 325 325 325 324 325 324 323 323 323 322 322 322 322 321 322 322 321 321 321 321 322 323 324 325 328 332 334 334 335 335 335 336 335 335 334 334 335 337 339 339 338 338 339 340 340 341 342 343 343 344 342 340 339 339 340 340 340 340 341 341 342 343 343 343 342 341 340 339 339 338 338 339 339 338 337 338 337 337
325 325 324 323 323 323 323 324 324 324 324 324 323 322 322 321 321 320 320 319 320 320 319 319 318 319 320 321 321 321 321 324 329 333 334 335 336 335 335 336 335 334 335 336 337 338 338 337 337 338 338 338 339 341 343 344 344 343 341 340 339 340 340 339 339 339 340 341 342 343 342 341 340 340 339 338 338 338 338 338 338 338 337 337 337
324 324 323 323 322 322 322 323 323 322 322 322 322 321 321 320 319 319 317 317 318 317 317 316 316 317 318 319 319 319 319 321 326 330 331 331 333 334 334 335 335 334 334 336 336 337 337 337 337 337 337 337 337 338 340 342 343 343 342 341 341 341 340 340 339 339 339 340 341 341 341 340 340 339 339 339 339 339 339 338 338 337 336 335 336
324 323 323 323 323 322 322 321 321 321 321 321 320 320 319 319 318 317 315 315 315 315 315 315 315 315 316 316 316 317 318 319 322 325 326 327 329 330 332 333 333 333 333 334 334 335 336 336 336 336 336 337 338 337 337 339 342 343 342 342 342 341 341 340 340 339 339 339 340 340 340 340 341 341 341 341 340 339 338 337 336 336 335 336 336
323 323 323 322 322 321 320 320 319 319 319 319 319 318 318 318 318 316 314 313 313 313 313 313 314 314 314 314 314 315 316 317 319 321 322 323 325 328 329 330 330 331 331 332 332 333 335 335 335 334 335 336 337 337 338 339 342 342 342 342 343 342 341 340 340 339 339 339 339 340 341 343 343 342 341 339 339 338 337 336 336 335 335 335 335
323 322 322 322 321 320 319 319 318 318 318 317 317 317 317 317 317 316 314 313 312 311 311 312 312 312 313 313 313 314 315 316 317 318 319 321 323 325 326 327 328 329 330 330 331 332 333 334 334 335 335 336 336 337 337 339 341 341 341 343 343 342 340 340 340 340 339 340 340 340 341 342 341 340 339 338 337 337 336 336 335 335 334 334 334
322 322 322 321 320 320 319 318 317 317 317 316 315 315 315 316 316 315 314 312 311 310 310 311 311 311 312 312 312 314 315 315 316 317 318 319 321 322 324 325 326 327 327 328 329 330 331 332 333 334 334 335 335 335 336 338 339 340 341 342 343 342 342 341 340 340 340 339 339 339 340 340 340 339 339 338 337 336 335 335 335 335 334 333 333
322 322 322 321 320 320 319 318 317 315 315 315 314 314 314 314 314 314 313 312 311 310 310 310 311 311 311 311 312 313 315 316 316 317 318 319 320 321 323 324 325 326 326 326 327 328 328 328 330 331 333 333 334 335 335 336 338 338 340 341 341 341 341 341 340 340 340 339 338 338 338 339 339 340 339 337 336 335 334 334 334 334 333 332 331
Wind_Speed
9 9 10 11 11 12 13 13 13 14 14 14 14 15 15 15 15 16 15 15 15 16 16 16 17 16 15 15 15 16 15 15 17 20 22 23 23 24 23 21 22 25 27 26 25 26 26 23 21 23 24 23 22 23 22 21 21 22 21 19 18 17 16 15 9 6 10 12 11 12 17 20 20 17 15 16 16 15 17 17 15 13 13 13 15
10 11 11 11 12 13 13 14 14 14 14 14 15 15 15 15 15 15 16 17 17 17 17 16 16 15 14 15 17 17 17 17 17 18 20 22 22 23 24 23 23 26 28 27 25 25 26 27 24 23 23 24 24 24 23 22 22 24 22 20 20 19 16 16 12 8 9 12 13 13 13 16 19 17 16 15 14 14 16 17 15 14 14 13 14
11 12 12 12 13 14 14 14 14 14 14 15 15 15 15 15 16 16 17 17 17 17 17 16 16 16 17 17 18 18 17 17 17 18 20 21 23 24 24 23 23 25 29 31 28 24 23 25 26 24 22 23 24 24 24 25 25 22 20 20 21 20 20 20 17 12 10 12 13 14 13 13 15 14 13 12 12 12 15 15 14 14 15 15 15
11 12 12 13 14 14 14 14 14 14 14 14 15 15 16 16 16 16 17 17 16 16 17 18 18 18 18 17 17 17 16 15 15 17 19 19 21 24 25 25 24 23 26 31 31 27 24 25 28 28 25 24 24 24 24 25 26 24 21 21 19 19 19 21 21 19 15 12 13 14 13 11 11 11 11 11 12 14 14 14 14 14 14 15 14
11 11 12 14 14 15 15 15 15 15 15 15 15 16 16 16 16 16 17 17 17 17 18 19 18 18 18 17 17 17 16 14 14 15 17 18 19 21 23 25 26 23 24 28 29 27 24 26 30 30 29 27 25 24 24 25 26 25 24 21 18 16 16 18 22 23 18 13 12 13 12 10 7 8 12 14 14 14 13 13 13 13 14 14 14
10 11 13 13 14 14 15 15 15 16 16 16 16 17 17 17 16 17 18 18 18 18 19 19 19 19 18 18 18 18 18 17 15 16 17 18 19 20 20 24 26 26 27 27 27 26 26 26 27 27 28 28 25 22 22 24 26 26 26 24 21 18 17 16 18 21 19 15 13 12 12 11 8 7 10 13 14 14 13 12 13 14 14 15 14
10 11 12 13 13 14 15 15 16 16 16 16 17 18 18 17 17 18 18 19 19 19 19 19 19 19 19 19 19 19 19 20 18 17 17 17 18 19 21 23 23 24 25 27 27 27 28 29 29 29 29 28 25 21 19 22 24 24 24 23 21 18 17 16 14 16 17 15 13 12 11 11 11 10 9 11 13 14 15 12 12 14 16 16 15
11 12 12 13 14 14 15 16 16 16 17 17 18 18 18 18 18 18 19 19 19 19 19 19 19 19 19 19 19 19 19 20 19 17 16 15 16 17 20 22 24 24 24 25 26 27 28 30 32 34 34 33 32 31 27 23 23 23 21 20 20 19 18 16 14 14 15 14 13 13 12 12 12 12 11 11 12 14 14 13 12 13 13 14 15
11 12 13 13 14 15 15 16 16 17 17 18 18 19 19 19 19 19 20 20 19 19 20 20 20 21 20 20 20 20 20 20 19 16 14 14 15 16 17 19 21 23 24 25 27 28 29 29 31 32 32 33 35 36 35 31 28 25 23 22 20 20 20 17 15 14 15 14 12 12 12 12 13 13 13 14 15 15 13 13 13 12 10 10 13
11 12 13 14 15 16 16 16 16 17 17 18 18 19 20 19 19 19 20 20 20 20 20 21 21 21 21 21 21 20 20 20 19 17 16 16 17 18 18 18 18 20 22 23 25 27 28 29 30 32 32 31 31 33 35 35 35 32 27 23 23 21 18 17 16 15 13 13 13 12 11 11 14 16 17 17 19 17 14 14 14 12 10 10 11
11 12 13 14 16 16 16 16 16 17 18 18 18 20 20 20 20 20 20 21 21 20 20 20 20 20 20 20 21 20 20 21 20 18 18 19 19 19 19 18 18 19 21 23 24 25 25 27 29 30 31 30 30 32 35 36 36 35 31 27 25 24 22 19 18 17 14 12 13 14 13 12 14 17 19 19 19 18 18 17 14 13 11 8 7
11 12 13 14 16 16 16 17 17 18 19 19 19 20 20 20 21 21 21 21 20 20 20 20 20 20 20 20 21 20 19 20 20 18 18 19 19 19 19 18 17 19 21 23 25 25 25 26 26 27 29 30 29 31 33 33 33 33 31 29 28 27 26 24 20 19 17 15 14 15 16 15 15 16 19 20 19 20 20 18 16 14 13 11 8
11 12 13 14 15 16 16 17 18 19 20 20 20 20 20 20 20 21 22 21 21 21 20 21 21 21 21 20 20 20 20 20 20 18 18 19 18 18 19 18 17 18 20 21 23 25 25 25 24 25 27 28 27 27 28 27 27 28 28 28 30 32 32 28 24 21 20 19 18 18 19 18 17 17 20 21 21 19 18 18 18 16 15 15 14
11 12 13 14 14 16 16 17 18 19 20 21 21 21 21 20 21 22 22 22 21 21 21 21 21 20 20 21 21 20 20 20 20 19 18 18 18 18 19 19 18 19 19 20 22 23 25 25 24 24 25 25 25 25 25 26 25 25 26 25 26 29 28 27 26 26 24 23 22 22 22 21 20 19 19 21 21 21 20 20 20 19 19 19 17
12 12 13 13 14 15 16 17 18 20 21 21 21 21 21 21 21 22 23 22 21 22 21 21 21 20 20 21 21 21 20 19 19 18 18 18 18 18 19 19 19 19 19 20 21 22 23 24 24 24 24 24 24 23 23 24 24 23 24 24 24 25 25 25 24 25 27 28 28 27 26 24 23 22 21 21 21 23 23 22 21 21 19 18 16
12 12 12 13 14 15 16 18 19 20 21 21 21 21 21 21 22 22 22 22 21 21 21 21 20 20 21 21 21 21 21 19 19 18 19 19 18 17 19 19 18 18 18 20 20 21 22 24 23 22 24 24 23 23 21 21 21 21 21 22 23 26 29 29 26 23 25 28 31 32 32 30 28 26 25 22 21 23 23 20 18 18 16 11 10
12 12 12 14 16 16 17 18 19 20 21 21 21 21 22 22 23 22 22 22 21 21 20 21 21 21 22 22 21 21 21 20 19 18 19 19 17 17 18 19 17 17 17 18 19 19 21 22 21 21 23 23 23 23 22 21 22 22 21 21 22 25 27 28 26 25 26 27 30 32 34 34 30 28 27 24 23 24 22 18 17 18 14 9 8
11 11 12 14 16 17 18 19 19 20 21 22 22 22 23 23 23 22 21 21 22 21 21 21 22 22 21 21 21 21 21 21 20 19 19 18 17 17 18 19 18 17 16 17 19 19 19 20 19 19 22 24 24 23 21 22 24 22 21 21 22 24 24 21 21 24 27 27 27 28 31 33 33 31 29 26 25 26 25 22 21 20 16 12 11
12 11 12 14 16 18 19 20 20 21 21 22 23 23 24 24 24 23 23 22 22 22 22 21 22 22 21 21 21 20 20 20 20 20 19 19 18 18 18 20 19 16 16 18 20 20 20 20 19 20 22 25 25 22 19 21 22 22 22 21 22 25 24 20 20 24 25 25 25 26 27 30 33 36 34 30 27 28 28 27 25 22 19 17 15
14 13 13 15 17 19 20 20 21 21 22 23 24 24 23 23 24 25 25 24 23 23 22 21 22 23 23 22 21 20 20 20 19 18 18 20 20 18 17 19 19 16 16 17 18 19 20 19 20 20 22 24 25 23 21 21 22 23 23 22 22 22 20 19 22 23 21 22 24 24 23 23 26 31 33 30 29 29 28 27 26 25 23 21 19
15 15 15 16 17 18 20 20 21 22 23 23 23 23 24 24 24 25 26 25 24 23 22 21 22 22 22 22 21 20 20 19 19 19 19 20 20 18 18 19 19 17 16 16 15 16 18 18 19 20 20 22 22 22 21 21 23 24 24 24 22 19 16 17 19 17 16 19 21 21 22 21 22 24 25 27 29 30 30 29 28 28 28 25 22
16 16 16 17 17 18 20 20 21 22 22 22 23 24 25 25 24 24 25 25 24 23 21 21 20 20 21 21 20 20 20 19 18 19 21 21 20 18 18 20 20 18 17 16 15 15 16 17 20 21 20 19 20 22 22 22 24 24 23 23 22 20 18 18 17 16 16 17 17 17 20 21 22 24 24 24 27 28 29 31 31 30 31 30 27
16 16 17 18 19 20 21 22 22 22 22 23 24 25 25 25 24 24 24 24 23 22 20 19 18 19 19 19 19 18 18 18 18 19 22 22 20 19 19 19 20 19 18 18 17 15 15 17 21 21 19 18 17 18 19 20 22 22 20 19 20 20 22 21 19 18 18 17 17 18 19 19 21 23 24 25 25 25 27 28 30 31 32 32 31
17 18 18 19 20 21 22 22 23 23 23 24 24 24 24 24 23 22 22 22 22 21 19 18 17 17 17 18 19 19 19 18 18 19 20 19 17 17 18 18 19 20 21 21 19 16 16 19 22 20 19 18 16 15 15 16 17 18 16 15 16 18 21 21 20 19 19 19 19 20 20 21 21 21 23 24 24 24 25 26 29 31 31 32 32
17 18 19 20 20 21 22 23 23 23 24 24 24 23 23 22 21 20 21 21 21 20 19 18 17 16 16 17 18 19 19 18 19 20 20 17 16 17 17 18 18 19 21 22 21 18 18 20 22 20 19 19 16 13 13 14 13 13 12 11 12 14 17 19 19 20 20 20 20 21 22 22 22 22 22 22 23 23 23 25 29 30 29 29 30
16 17 19 20 21 21 22 23 23 24 25 24 22 21 20 20 20 21 20 20 19 19 18 17 16 16 16 16 17 18 19 19 19 19 19 17 16 15 15 15 15 17 18 19 19 20 19 20 21 20 19 18 16 13 13 13 12 12 12 12 13 15 17 18 18 19 19 19 19 21 21 21 21 21 22 23 24 24 24 25 27 28 27 26 25
17 19 20 21 21 21 22 22 22 23 24 24 22 22 22 21 20 20 20 19 19 19 18 17 17 17 17 18 18 19 19 19 18 17 16 15 13 11 9 11 13 14 15 15 16 17 17 17 19 21 21 20 19 17 15 14 14 14 15 16 18 20 21 22 22 22 21 20 19 19 20 19 20 20 21 22 24 24 25 27 26 26 26 24 23
18 20 21 21 20 20 21 22 22 22 23 24 23 23 23 22 21 21 21 20 20 20 21 20 19 20 20 20 20 19 18 18 18 16 13 10 10 12 14 15 15 15 15 14 15 16 15 15 17 20 21 20 19 18 17 18 19 19 19 19 20 22 24 24 25 24 23 21 20 19 19 19 19 19 21 22 23 23 25 26 26 26 25 22 20
18 19 20 20 20 21 22 23 22 22 23 24 24 24 24 24 24 25 25 24 24 25 26 25 23 23 23 23 21 20 19 18 16 15 14 13 15 19 21 20 19 18 17 17 17 17 16 16 16 17 18 18 17 17 17 18 18 19 19 19 18 20 21 22 23 23 23 22 21 20 19 18 18 18 19 20 21 23 23 24 24 24 24 21 17
17 18 20 20 20 21 22 23 22 22 23 24 25 25 25 25 25 26 28 29 29 29 29 28 26 25 26 27 26 24 24 23 22 22 23 23 24 23 21 20 19 18 18 19 18 17 16 16 16 17 18 17 16 15 15 15 15 17 19 20 20 19 18 18 19 19 20 21 21 20 19 18 17 17 18 19 19 20 22 24 25 24 25 23 16
16 18 19 20 20 20 21 22 23 23 23 24 24 24 24 26 26 27 27 29 29 29 28 28 27 27 29 30 31 30 29 28 28 27 25 24 23 20 19 18 18 17 18 18 16 16 16 15 16 18 18 16 15 15 13 12 14 15 15 16 16 15 14 14 14 14 15 17 18 18 19 18 17 17 18 19 19 19 20 24 26 24 24 24 20
16 16 18 20 21 22 21 22 22 22 22 23 23 23 23 25 26 27 28 28 28 28 27 28 29 29 28 29 31 31 28 26 25 25 24 23 23 21 21 20 20 20 20 18 14 14 16 17 17 18 17 15 14 15 13 13 15 14 11 10 10 10 10 10 10 10 11 13 15 17 19 20 19 18 18 19 20 20 20 23 25 25 25 26 24
17 17 18 19 21 21 21 21 22 22 22 22 22 23 23 22 23 25 28 28 27 27 27 28 29 28 26 25 25 26 26 24 23 22 21 21 22 22 22 21 21 20 19 17 13 13 16 19 18 17 16 14 14 15 13 12 14 14 11 9 8 7 8 8 8 9 12 14 15 17 20 21 21 20 20 20 20 21 22 22 24 25 25 23 23
18 19 20 20 20 20 21 21 22 22 22 22 23 23 23 22 21 22 24 25 26 27 29 29 27 25 23 23 23 23 24 24 23 20 17 16 18 18 19 20 19 18 17 17 15 14 16 18 19 18 17 15 15 15 13 13 14 13 11 9 8 8 8 7 7 8 11 14 17 19 20 20 20 20 20 20 20 20 21 21 22 22 21 21 24
19 20 21 21 21 21 21 22 22 22 23 23 23 22 22 22 22 22 23 23 23 25 26 27 27 25 24 23 23 22 21 22 22 21 18 16 16 15 15 16 16 15 16 18 18 19 20 20 20 19 17 14 14 15 16 17 17 15 11 9 8 8 8 5 5 7 9 12 15 17 17 16 17 18 18 18 18 17 18 19 19 18 18 22 24
19 20 20 21 21 21 21 22 22 22 22 22 22 23 24 24 23 24 24 24 23 23 24 25 27 26 24 21 19 18 17 18 19 19 18 17 15 14 14 13 12 12 13 15 18 20 22 21 19 17 16 15 14 14 14 14 12 10 9 9 8 7 7 4 3 5 7 7 8 10 11 10 11 12 13 15 17 18 18 18 19 18 18 20 23
19 20 20 21 20 20 21 22 21 22 23 23 23 24 25 25 24 23 23 23 24 23 23 24 25 24 22 20 18 16 15 15 16 16 16 16 14 14 15 13 12 12 13 14 16 17 17 16 16 17 19 18 17 14 12 11 9 7 6 7 7 6 6 4 2 3 4 2 3 6 7 8 8 7 8 11 12 13 17 22 27 29 27 26 26
19 20 21 21 21 20 21 21 21 21 23 23 22 23 24 25 25 23 23 23 23 22 21 22 21 20 20 21 20 16 15 15 16 15 14 14 15 17 17 15 14 15 15 15 16 16 14 13 15 17 17 17 17 13 9 10 10 9 7 8 7 6 5 3 2 2 4 6 10 12 14 15 14 14 16 18 21 22 22 25 29 30 29 27 26
20 21 21 22 22 20 20 20 20 20 21 21 21 21 22 23 24 25 24 24 23 21 20 20 20 19 19 20 20 17 14 15 16 15 14 14 15 16 15 13 14 15 15 15 16 16 14 14 16 17 16 16 17 14 8 8 9 9 8 9 9 7 6 6 6 8 11 15 16 16 17 18 18 19 21 23 25 26 25 25 26 26 24 23 23
20 21 20 20 20 19 19 19 19 19 20 20 20 20 20 21 22 25 25 23 22 22 20 18 19 19 20 20 20 18 16 15 16 17 16 16 15 14 13 12 12 13 13 14 15 15 15 16 18 18 18 18 17 13 9 9 9 9 9 10 11 9 9 9 10 12 15 17 17 15 16 18 19 20 21 22 23 24 23 23 24 23 21 22 23
19 19 19 19 19 20 20 20 20 20 21 21 21 20 20 20 22 24 23 21 20 21 21 19 18 19 20 22 24 24 23 20 17 17 18 17 16 15 15 14 14 14 13 13 14 14 15 16 17 18 19 18 14 11 10 11 11 11 11 10 11 10 9 10 12 13 14 16 17 16 17 18 18 19 20 21 22 22 23 23 23 22 22 22 22
18 19 19 18 19 19 19 19 20 21 21 21 20 20 19 20 21 21 21 19 19 19 18 18 19 20 21 23 26 28 26 22 18 17 18 17 15 14 15 15 16 17 16 14 12 13 15 15 14 15 17 15 11 10 11 11 12 12 12 12 12 11 11 12 13 14 15 15 16 16 17 17 17 19 20 20 20 21 21 20 20 21 21 20 19
18 18 17 17 17 17 17 17 18 19 19 19 19 19 19 20 20 19 19 18 18 17 17 17 19 19 20 23 26 26 25 22 19 18 17 14 13 13 14 14 15 16 15 14 12 12 13 13 13 13 13 11 10 10 9 10 12 12 12 12 13 12 12 13 14 15 15 15 15 16 16 16 17 18 19 18 18 19 19 19 19 19 19 18 17
18 16 16 16 15 16 16 16 16 17 18 19 20 19 19 19 19 19 19 18 17 17 17 18 19 19 19 21 24 24 26 25 21 16 13 12 11 12 13 12 11 9 10 12 11 10 10 11 12 10 7 7 10 9 8 9 11 10 11 13 13 11 11 13 13 14 15 16 16 16 16 16 17 17 17 18 19 19 20 20 18 17 16 18 18
16 15 16 16 16 16 17 16 16 17 17 19 20 20 19 19 19 19 20 19 18 17 17 19 20 18 17 19 21 22 26 27 21 14 13 12 10 8 7 6 4 5 8 11 10 9 8 8 8 7 5 7 9 7 5 8 7 5 8 13 14 11 12 13 12 12 15 17 18 18 17 17 17 17 18 19 19 19 18 18 17 16 18 20 21
15 15 17 17 17 17 17 17 18 18 17 17 19 20 19 19 19 20 21 20 18 17 18 19 20 18 17 18 19 21 24 25 21 16 17 17 15 14 14 12 10 10 8 7 7 7 7 5 5 5 6 7 7 4 4 6 6 6 8 12 12 12 13 14 12 13 15 17 18 19 18 17 16 16 17 18 18 18 18 18 19 20 21 21 22
13 15 16 17 17 17 16 17 18 18 17 16 17 18 18 19 19 20 21 20 19 18 18 19 19 18 17 18 19 19 21 22 19 15 17 19 17 17 18 18 18 18 15 13 12 11 10 9 8 8 7 6 6 6 8 8 8 9 11 11 12 13 14 14 13 13 14 16 19 19 18 16 17 18 19 20 21 22 22 21 21 23 22 21 21
14 15 16 17 16 15 15 17 17 17 17 17 17 17 18 18 18 19 21 21 21 20 19 19 19 18 17 19 20 19 19 19 17 14 15 17 17 16 16 17 17 18 16 14 12 11 10 10 10 10 10 10 10 11 11 10 11 12 12 13 14 15 16 15 15 14 13 15 18 19 18 19 21 22 23 24 24 24 24 24 24 24 23 22 21
14 15 15 16 15 15 15 16 16 16 16 17 17 17 17 18 18 20 21 21 21 21 20 19 19 19 18 20 21 20 18 18 17 15 15 14 14 13 14 15 15 16 17 17 15 12 10 9 9 9 11 12 12 13 14 16 17 16 17 19 19 18 17 16 15 15 15 16 19 20 20 22 23 23 24 25 25 25 26 27 27 27 26 24 24
13 14 15 15 15 15 16 16 16 15 16 16 16 16 17 17 18 19 20 19 20 22 22 21 20 20 21 22 22 20 19 19 18 17 15 14 13 13 14 16 17 17 17 16 15 13 12 10 10 11 13 15 15 15 19 22 22 21 22 23 22 19 18 18 18 17 18 19 20 21 22 24 25 24 23 25 26 27 27 28 28 28 28 27 26
12 13 14 14 13 14 15 15 14 14 15 15 15 16 16 17 18 19 19 19 21 23 24 23 22 23 23 22 21 20 20 21 21 19 19 17 15 15 15 16 18 18 16 14 13 13 13 14 15 16 19 21 21 21 23 25 25 23 20 20 19 18 18 18 18 17 18 19 20 21 23 24 25 24 24 25 27 28 27 27 27 27 26 26 27
Wind_Direction
329 326 320 314 313 313 314 313 312 310 307 306 304 301 299 298 297 299 301 302 301 301 299 297 295 292 288 287 284 277 270 261 260 264 263 260 260 260 259 257 251 248 247 252 257 256 254 255 253 249 250 250 245 241 241 240 240 241 238 228 231 238 221 202 199 219 234 247 242 216 206 210 215 215 216 226 234 231 224 223 231 239 238 241 248
327 321 315 311 310 311 312 311 310 308 308 307 305 301 300 301 301 301 300 299 299 299 297 294 293 294 295 295 294 287 275 265 263 264 264 264 261 258 258 260 257 251 247 248 253 256 254 254 256 252 248 248 247 243 241 241 241 238 233 225 222 231 229 213 206 212 222 231 239 239 221 206 210 217 217 226 235 227 217 219 226 235 237 239 246
321 316 314 313 312 312 311 309 309 308 308 306 303 302 302 303 304 302 299 297 296 295 295 296 298 300 299 298 297 293 280 268 264 258 259 265 264 259 256 257 257 255 253 251 250 253 254 255 258 259 254 249 248 246 242 242 248 247 240 233 222 219 229 227 214 211 221 222 228 243 241 219 217 221 216 224 237 224 218 226 231 233 237 241 243
316 314 316 315 313 313 313 313 313 311 310 307 305 305 306 306 306 303 301 298 297 296 297 298 300 299 297 295 295 294 284 268 259 253 256 264 266 263 258 253 253 258 261 259 254 251 254 256 256 258 259 258 254 249 244 241 247 251 249 245 232 218 223 225 215 212 217 218 223 234 237 235 238 229 213 217 224 217 218 231 239 240 243 248 250
314 317 318 316 315 315 316 318 318 316 316 314 312 312 312 311 308 306 304 302 300 299 298 297 297 296 295 294 293 297 295 281 266 261 263 266 266 264 261 255 253 255 261 264 260 254 250 251 250 249 253 260 261 255 249 244 244 248 252 254 248 236 231 223 213 211 213 215 218 220 221 229 238 224 221 226 224 217 219 231 242 245 246 250 251
317 319 318 315 315 317 319 320 320 320 320 318 317 317 315 312 309 307 306 304 302 300 297 296 296 295 294 294 294 295 298 293 278 269 268 268 268 265 261 260 259 259 259 260 259 253 247 247 250 247 245 252 261 261 259 255 248 244 246 249 249 244 241 235 216 206 208 216 218 214 210 213 216 214 226 233 230 227 229 238 248 249 249 254 251
317 317 315 315 316 318 320 321 321 320 318 316 315 314 312 310 307 306 306 304 301 299 297 296 296 296 294 295 295 293 296 296 286 276 272 270 270 268 263 262 262 262 260 258 256 254 249 246 248 248 242 244 252 256 262 270 266 254 245 243 241 239 241 243 222 199 202 211 215 214 209 207 212 218 225 229 230 231 230 239 254 249 245 251 250
314 314 315 316 317 319 321 320 319 317 314 314 314 313 311 309 307 307 305 303 300 298 298 297 296 297 295 294 294 292 292 291 283 276 270 265 270 273 269 265 263 260 261 261 259 256 253 247 244 245 244 243 245 243 242 253 268 272 267 255 241 232 235 239 224 204 204 210 211 213 210 205 207 215 217 216 222 229 226 233 252 252 244 244 246
312 315 317 317 319 320 320 318 316 315 315 315 315 313 312 310 309 308 306 303 300 298 298 297 295 295 295 294 294 292 290 289 285 279 269 261 264 270 270 268 265 261 261 264 263 259 256 250 244 244 245 243 245 244 239 238 247 259 271 276 264 239 225 228 229 216 206 207 208 208 207 205 204 206 208 213 223 229 222 225 243 250 250 250 247
313 318 318 319 321 319 318 317 316 316 316 315 314 313 312 311 309 308 306 304 302 300 299 298 296 294 294 293 293 292 291 292 291 285 277 271 269 271 272 270 268 265 262 264 264 259 255 251 247 245 244 241 242 245 244 241 241 244 251 268 278 266 238 225 229 226 213 207 208 207 206 209 210 209 213 222 230 229 219 220 235 245 254 263 259
314 317 317 319 320 318 318 318 317 316 314 314 314 313 312 311 309 307 307 305 303 303 301 299 296 294 293 293 293 291 290 292 294 289 281 278 276 275 274 273 272 269 264 263 263 259 255 253 252 248 242 239 239 243 245 242 239 240 241 241 252 262 255 238 229 227 224 216 209 208 210 216 220 219 220 225 227 225 221 223 231 239 242 250 260
319 318 317 317 316 317 319 317 316 315 315 315 315 313 311 310 308 307 307 306 304 304 301 299 297 296 294 292 291 290 289 291 294 293 284 279 278 276 274 275 274 271 268 266 265 262 257 255 256 251 245 243 242 241 242 241 237 239 241 236 236 244 248 242 233 227 228 226 218 215 219 226 230 227 225 225 223 222 223 225 230 234 230 224 232
316 314 316 317 317 318 318 317 316 315 316 316 315 313 311 309 307 307 306 306 305 303 301 299 297 296 294 293 291 291 290 289 291 291 284 277 276 276 275 275 273 272 271 269 267 265 261 257 256 253 248 247 247 241 236 236 234 235 236 234 235 239 242 244 243 236 233 232 228 226 228 231 233 233 232 230 224 218 217 222 227 228 226 226 230
314 315 317 316 318 320 320 320 318 315 315 315 314 312 311 309 309 307 307 306 304 302 301 300 298 296 294 293 292 291 290 289 290 290 284 277 275 273 272 273 274 271 269 267 266 265 263 257 253 253 252 249 246 240 235 233 232 236 238 237 239 244 248 253 252 245 238 235 234 236 236 234 234 235 236 233 226 219 216 219 222 220 221 227 231
313 314 314 314 318 322 321 319 315 313 313 313 312 310 309 309 309 308 307 305 303 302 300 298 297 296 295 293 292 291 289 290 291 290 285 281 278 272 270 272 273 271 270 268 264 262 261 256 252 254 257 254 247 241 241 241 238 240 244 244 245 249 250 252 252 248 245 242 240 241 241 238 236 236 237 234 230 229 225 223 221 216 217 225 231
311 311 316 322 326 325 321 316 312 313 313 311 309 308 308 309 309 308 307 305 302 301 299 298 297 296 296 295 293 291 291 292 293 291 287 284 278 271 269 270 269 268 270 271 268 263 260 256 251 249 251 252 250 247 245 244 241 239 240 243 246 248 248 248 247 249 251 251 249 247 246 243 240 239 240 236 230 227 222 217 213 208 206 214 226
313 317 325 327 324 320 317 313 311 311 311 309 308 307 308 309 308 307 307 305 302 300 298 298 297 295 295 295 293 292 293 295 295 292 291 289 283 275 271 269 266 265 265 269 270 266 260 257 255 253 254 254 252 250 247 244 241 238 236 239 244 248 250 250 248 246 246 249 251 251 249 247 243 241 242 239 230 223 216 210 208 204 199 202 218
316 323 326 324 320 319 316 314 313 312 309 307 306 307 309 309 307 306 306 303 300 299 298 297 295 294 293 292 292 293 292 294 294 291 291 290 284 278 274 269 266 265 262 266 271 268 262 260 258 256 254 251 250 252 253 248 242 238 235 235 238 244 248 251 253 249 243 243 246 248 248 248 246 244 243 241 236 228 222 220 216 208 202 206 215
327 328 324 323 321 318 316 315 313 310 307 305 305 305 306 307 306 305 304 301 298 298 298 296 293 292 292 290 291 292 290 290 292 292 290 288 283 280 276 268 265 267 266 267 271 270 266 264 260 254 249 246 247 248 249 247 244 242 240 236 235 243 247 246 249 250 246 245 248 249 248 247 246 244 242 241 240 236 233 232 225 213 209 213 213
329 327 324 325 321 317 315 314 311 309 306 305 304 303 303 305 306 305 303 300 298 297 296 295 293 293 293 292 291 291 289 289 290 289 289 290 288 284 275 267 263 264 265 265 264 264 266 266 264 262 256 253 251 246 242 245 245 240 239 237 235 240 244 243 246 249 247 248 253 255 252 248 244 243 241 238 237 236 235 234 229 224 221 218 212
324 323 324 322 317 315 315 313 311 309 306 304 304 304 304 305 304 304 303 300 296 294 295 296 294 294 294 294 294 293 291 289 286 283 286 291 289 281 274 273 270 263 261 263 261 260 266 271 273 271 264 259 255 248 244 246 241 232 232 236 238 239 240 241 244 244 244 249 254 256 254 248 241 238 235 232 232 233 232 232 231 230 227 221 216
315 317 321 319 317 316 314 312 310 307 305 305 304 303 303 303 301 301 302 300 296 293 295 298 297 296 296 296 296 296 295 292 286 285 292 297 291 278 272 274 274 266 261 262 260 256 259 267 272 272 270 267 261 253 249 245 238 234 237 241 243 242 239 238 241 243 247 252 253 253 253 250 244 240 236 232 231 231 231 232 233 230 227 225 223
314 318 321 321 320 318 314 312 309 305 304 303 300 298 299 300 300 300 301 300 297 293 293 296 298 298 297 298 299 299 300 298 293 291 299 304 296 283 278 276 274 270 265 262 260 254 251 262 269 267 266 270 265 254 249 242 235 236 241 245 246 245 242 242 245 251 253 253 251 248 248 249 247 243 240 237 234 231 230 232 233 231 230 230 228
319 321 322 320 318 316 313 312 310 307 304 301 298 297 298 298 299 300 301 301 298 294 293 297 297 294 294 297 299 299 302 303 297 292 299 304 295 284 282 282 279 273 266 263 262 257 252 259 267 265 261 261 259 253 251 246 239 237 239 241 244 247 247 245 245 248 248 246 245 244 243 244 243 241 240 239 239 238 237 236 235 231 230 230 230
321 319 318 317 315 314 314 313 312 309 305 301 298 295 296 299 302 304 304 302 299 297 298 301 299 294 295 298 299 299 302 305 301 297 297 296 291 287 288 291 289 282 276 271 266 263 261 264 268 268 260 252 249 250 254 252 248 246 243 239 236 237 240 241 242 244 243 241 241 241 241 242 240 239 240 238 236 238 236 234 234 233 230 230 232
320 317 317 317 317 317 316 315 314 311 308 307 305 303 304 308 308 307 305 303 303 303 303 304 304 302 301 301 298 298 301 300 297 297 295 292 293 296 295 297 300 299 296 287 271 261 260 262 265 265 258 248 245 248 253 253 254 254 251 244 236 232 231 233 236 239 240 242 243 241 241 242 240 239 238 235 233 232 227 225 229 231 229 228 229
320 319 319 319 318 317 315 314 314 313 312 314 315 314 313 311 308 306 306 306 308 310 310 310 311 310 306 302 299 298 298 297 296 297 296 293 296 304 305 306 308 306 305 303 287 270 261 260 261 259 255 253 253 253 250 249 251 254 254 249 243 238 234 232 233 234 236 239 242 243 243 242 237 233 228 225 225 224 221 221 224 226 225 223 222
321 319 317 317 317 316 314 315 316 315 314 315 315 314 313 312 310 309 308 308 310 312 312 311 311 310 305 302 302 301 298 297 298 298 292 286 299 316 320 317 311 304 301 303 297 285 275 271 266 259 253 252 252 247 243 243 243 243 243 243 243 242 238 235 235 236 238 241 245 247 246 243 238 233 227 222 220 218 217 217 219 220 220 215 211
321 318 318 318 318 317 316 317 317 315 313 313 313 312 311 311 311 310 308 307 307 308 307 303 302 303 302 299 300 300 296 294 297 296 291 293 304 312 314 312 306 300 296 294 291 287 281 275 268 257 247 242 241 239 238 239 238 236 235 233 234 235 234 231 231 235 238 241 244 247 247 244 240 232 225 221 217 215 214 213 213 214 212 205 204
319 319 320 319 318 318 317 316 314 312 311 311 311 310 308 306 305 304 303 303 303 303 302 299 297 298 297 293 292 291 289 286 286 288 290 294 299 302 305 306 306 303 300 297 293 290 282 269 259 253 245 238 237 238 234 229 228 230 230 228 227 231 233 231 232 236 241 242 244 246 247 245 239 230 223 221 217 215 216 217 214 211 206 201 201
320 320 320 317 317 317 315 313 312 311 310 309 307 306 305 304 303 301 300 300 302 303 302 301 299 297 293 290 289 290 288 285 282 283 286 288 291 293 296 298 299 301 304 301 294 288 278 262 250 248 245 240 241 245 247 246 243 238 230 224 223 230 237 238 238 242 248 250 250 249 247 245 241 233 225 223 223 221 218 216 213 206 200 197 195
317 316 315 314 315 314 312 311 311 309 308 307 306 306 306 306 306 305 305 305 306 306 305 303 301 298 294 291 290 289 289 287 283 281 282 283 285 287 289 290 293 295 297 294 287 277 269 258 249 244 240 234 233 236 241 252 252 244 230 217 217 222 229 235 241 250 261 265 262 256 249 244 242 240 234 229 226 221 215 212 208 202 199 197 192
312 311 311 311 312 313 314 314 312 309 308 307 308 308 308 307 306 307 309 311 311 309 308 306 303 300 296 294 292 290 290 288 283 279 279 282 284 285 286 286 288 289 287 282 273 263 259 258 257 254 249 244 239 232 228 235 240 234 221 217 222 223 223 234 254 270 277 275 267 258 251 245 242 242 240 232 222 213 212 213 209 202 197 189 176
313 314 314 316 318 319 319 317 313 312 311 311 311 311 309 308 307 307 310 313 313 312 311 310 309 305 300 298 299 297 295 292 286 278 274 275 278 280 282 283 283 282 278 270 258 251 255 258 256 251 248 247 244 236 224 221 227 226 216 213 221 219 219 239 273 286 282 275 266 256 249 243 239 236 234 230 222 211 207 207 205 198 186 169 158
322 322 321 324 327 325 323 321 318 316 317 316 315 313 310 308 307 307 307 308 309 309 309 310 310 309 303 299 301 302 301 297 292 283 274 270 269 268 270 274 276 275 271 263 251 245 246 247 248 247 242 235 233 228 215 209 214 217 209 204 207 203 203 225 272 282 280 276 264 252 243 237 234 233 229 223 216 206 196 192 191 184 170 157 149
328 327 327 330 331 328 325 324 322 319 319 318 315 313 312 310 308 307 307 307 307 307 308 308 310 311 307 302 303 310 309 303 297 289 279 272 266 258 253 255 258 257 257 254 247 242 240 241 248 256 252 239 231 225 212 204 209 209 196 189 187 179 177 194 252 283 289 281 251 232 225 218 218 222 216 207 204 200 186 168 153 141 135 133 132
330 330 329 331 332 329 328 326 322 318 318 317 315 314 314 313 312 312 311 312 313 312 310 309 310 311 311 308 311 318 316 308 305 299 286 273 261 250 244 243 243 247 251 248 242 238 237 239 245 252 253 250 244 228 205 194 199 197 166 150 147 143 149 172 227 298 301 269 181 165 156 149 148 154 160 164 169 170 160 144 131 125 125 125 126
332 331 330 331 333 331 328 325 321 320 319 318 317 317 316 315 316 318 317 316 318 316 314 313 312 311 311 312 316 322 322 316 310 302 288 274 261 252 250 248 245 245 250 250 247 244 239 237 240 246 254 266 268 252 209 182 190 192 160 140 144 149 148 154 141 94 84 96 104 107 107 105 102 100 104 109 110 110 115 119 119 123 129 133 132
329 329 329 331 332 330 326 322 320 320 319 317 316 316 316 316 318 320 320 320 322 321 318 316 316 315 316 317 317 317 318 315 308 298 285 273 261 251 246 243 243 245 247 248 252 251 242 236 239 240 244 258 267 258 217 176 184 191 169 151 155 167 171 160 136 111 102 100 101 102 100 97 97 97 97 100 104 107 108 112 119 126 133 136 135
329 329 330 330 329 327 323 320 319 318 319 320 318 316 316 316 318 320 323 326 328 326 322 317 316 319 327 332 329 322 316 313 308 299 289 279 270 258 246 237 237 243 245 245 249 250 241 236 236 233 230 239 249 239 203 173 174 184 180 166 159 165 173 160 135 121 115 112 109 108 105 103 105 107 105 106 111 116 118 121 125 129 132 135 137
332 332 330 328 327 326 324 324 324 324 325 325 323 320 318 319 320 322 325 329 330 327 326 325 327 332 338 342 340 334 324 313 305 301 298 293 285 276 266 255 248 248 249 248 247 242 235 235 238 237 237 242 239 214 186 174 172 179 185 175 162 165 171 158 140 132 128 125 122 121 119 116 115 116 116 117 120 123 126 129 131 132 134 138 142
335 332 330 330 329 330 330 328 328 328 328 328 327 326 325 324 323 324 327 329 329 328 328 329 333 337 338 337 338 337 329 314 300 298 302 299 290 281 276 267 258 254 256 260 255 234 222 227 236 238 240 241 224 194 184 177 170 178 186 176 166 170 170 155 145 140 135 133 133 133 130 128 126 125 126 126 126 127 130 133 137 140 143 149 152
335 334 334 335 333 333 333 329 327 329 330 329 331 332 331 329 329 330 331 332 331 331 333 333 334 336 336 335 338 339 335 325 313 306 305 301 288 279 275 268 260 255 255 257 246 217 206 218 234 241 242 230 202 188 186 176 172 183 189 176 169 175 170 155 148 145 139 136 138 137 134 133 133 134 135 135 135 138 141 144 148 152 154 156 158
341 341 339 336 333 333 333 329 329 332 331 331 335 338 337 337 337 336 336 336 334 334 336 338 338 336 334 335 338 340 338 336 332 326 325 322 305 289 280 273 269 262 246 232 215 194 196 218 231 236 234 204 182 180 184 181 185 199 195 177 172 174 165 154 151 149 144 141 141 141 139 139 141 142 143 143 143 144 146 149 155 156 150 149 151
348 346 342 339 337 336 335 333 334 335 333 334 339 342 343 344 343 341 340 340 340 339 340 342 341 337 333 335 338 341 342 343 347 358 8 3 352 337 324 305 266 223 212 208 195 181 189 211 213 203 186 177 180 189 184 171 172 179 170 167 168 165 156 154 155 155 150 145 144 143 144 145 148 149 149 149 150 149 145 145 149 146 139 140 145
353 348 344 342 341 339 337 338 339 339 337 338 342 344 345 345 345 345 346 345 343 344 345 344 343 341 339 337 339 343 347 350 356 11 20 21 29 41 45 53 77 99 115 126 125 129 141 152 151 147 149 162 175 173 127 126 129 117 124 141 149 148 147 150 154 155 151 147 145 146 150 152 153 149 145 144 144 142 138 137 137 134 132 137 142
357 349 344 343 343 341 340 340 340 340 340 342 345 347 347 346 347 351 352 351 349 348 348 346 346 345 343 343 344 349 354 356 358 8 15 16 25 43 55 62 69 74 81 88 93 98 102 106 105 102 99 114 133 115 91 94 111 118 122 129 133 136 140 143 144 146 148 147 148 149 148 143 136 131 129 128 129 131 132 131 128 128 129 133 137
359 349 345 346 347 346 344 343 343 343 345 347 349 350 349 347 350 354 355 355 354 352 349 349 351 351 350 351 353 356 360 2 4 12 20 20 22 34 49 59 65 70 74 78 81 85 89 94 96 91 86 94 107 108 101 102 111 114 116 119 124 130 136 138 139 141 142 143 145 143 135 125 121 122 124 126 127 129 128 124 122 125 128 128 128
358 348 346 349 350 349 348 347 346 345 348 351 352 352 352 351 353 355 356 356 358 358 356 354 355 356 358 2 3 2 6 12 14 18 24 27 29 36 44 51 62 71 72 68 66 68 77 88 95 91 86 90 97 101 105 109 108 102 99 102 110 123 131 131 133 139 140 137 137 137 130 123 121 122 126 128 128 129 128 126 126 129 131 128 126
358 349 349 350 350 350 350 351 351 350 352 356 357 355 353 354 355 357 358 359 1 5 6 5 4 6 8 11 11 12 18 25 28 29 32 35 41 50 56 60 64 68 69 68 68 69 73 82 91 93 92 94 96 97 98 99 96 93 93 95 102 114 120 118 121 133 139 136 135 136 132 126 123 123 124 125 126 127 128 128 130 130 130 127 124
355 351 352 351 350 350 351 355 0 1 360 1 3 1 359 358 359 360 2 3 5 7 9 10 11 12 12 14 18 23 30 35 37 40 44 48 52 59 65 68 68 68 68 73 79 82 81 83 91 96 98 98 99 96 92 90 90 92 96 98 102 110 116 112 110 118 129 136 141 142 138 133 132 132 131 129 127 126 126 128 128 127 124 122 122